Back to catalog

STARLINK-37214

AliveCommunicationsVLEO
NORAD 68345·PAYLOAD·🇺🇸 United States

Launched Mar 22, 2026 from Cape Canaveral Space Force Station

Loading…

Next Passes (next 24 hours)

TLE

FreshSource: CelesTrak SupGP

Epoch: Sep 15, 2026, 02:49 UTC

1 68345C 26059AA  26258.11784722 -.00061573  00000+0 -18192-2 0  2587
2 68345  53.1573 180.5372 0001313  95.6189  73.3167 15.34420789    15

Track STARLINK-37214 in real time with AllMySat

Download on the App Store